User: anonymous   Login
Location: Columbia
(38.9520°N, 92.3340°W)
Time: 21:49:22
(UTC-05:00)
Language:

Iridium 15 - Orbit

View from above orbital plane
View from above orbital plane
View from above satellite
View from above satellite

Ground track
Ground track

The orbit data is extracted from the following two-line orbital elements,

1 24869U 97034A   15186.41661953  .00000311  00000-0  10384-3 0  9992
2 24869 086.3971 319.7436 0002228 092.7887 322.8682 14.34219178941750
Epoch (UTC): 05 July 2015 09:59:55
Eccentricity: 0.0002228
inclination: 86.3971°
perigee height: 776 km
apogee height: 779 km
right ascension of ascending node: 319.7436°
argument of perigee: 92.7887°
revolutions per day: 14.34219178
mean anomaly at epoch: 322.8682°
orbit number at epoch: 94175

The dashed part of the orbit path shows where the satellite is in the earth's shadow,  

DLR